Retour au catalogue

STARLINK-3369

ActifCommunicationsVLEO
NORAD 51142·PAYLOAD·🇺🇸 United States

Lancé Jan 19, 2022 depuis Cape Canaveral Space Force Station

Loading…

Prochains Passages (prochaines 24 heures)

TLE

FraisSource: CelesTrak SupGP

Époque: Sep 14, 2026, 20:48 UTC

1 51142C 22005AQ  26257.86715278 -.00003634  00000+0 -12466-3 0  2574
2 51142  53.2153 131.8100 0006355  93.5569 285.2946 15.29607418    14

Suivez STARLINK-3369 en temps réel avec AllMySat

Download on the App Store